| time (UTC) | temp F | wind direction | speed MPH | gust MPH | rain 1hr in | rain 24hr in | rain mn in | humidity % | barometer mb |
| 20260508145325 | 58 | 207 | 1.0 | 3.0 | 0.00 | 0.00 | 0.00 | 52 | 1016.6 |
| 20260508144313 | 58 | 196 | 1.0 | 2.0 | 0.00 | 0.00 | 0.00 | 52 | 1016.6 |
| 20260508143806 | 58 | 200 | 1.0 | 6.0 | 0.00 | 0.00 | 0.00 | 55 | 1016.8 |
| 20260508143306 | 58 | 199 | 1.0 | 6.0 | 0.00 | 0.00 | 0.00 | 52 | 1016.7 |
| 20260508142306 | 57 | 178 | 1.0 | 3.0 | 0.00 | 0.00 | 0.00 | 55 | 1016.8 |
| 20260508141808 | 57 | 193 | 1.0 | 3.0 | 0.00 | 0.00 | 0.00 | 63 | 1016.6 |
| 20260508140830 | 57 | 197 | 1.0 | 6.0 | 0.00 | 0.00 | 0.00 | 60 | 1016.6 |
| 20260508135803 | 57 | 199 | 1.0 | 6.0 | 0.00 | 0.00 | 0.00 | 57 | 1016.4 |
| 20260508135308 | 57 | 197 | 1.0 | 6.0 | 0.00 | 0.00 | 0.00 | 63 | 1016.4 |
| 20260508133801 | 57 | 190 | 1.0 | 2.0 | 0.00 | 0.00 | 0.00 | 62 | 1016.5 |
| 20260508133303 | 56 | 199 | 1.0 | 4.0 | 0.00 | 0.00 | 0.00 | 62 | 1016.5 |
| 20260508132803 | 56 | 196 | 1.0 | 4.0 | 0.00 | 0.00 | 0.00 | 63 | 1016.6 |
| 20260508131802 | 56 | 191 | 1.0 | 3.0 | 0.00 | 0.00 | 0.00 | 66 | 1016.5 |
| 20260508131304 | 56 | 200 | 1.0 | 3.0 | 0.00 | 0.00 | 0.00 | 62 | 1016.6 |
| 20260508130804 | 56 | 202 | 1.0 | 4.0 | 0.00 | 0.00 | 0.00 | 63 | 1016.6 |
| 20260508125807 | 55 | 199 | 1.0 | 4.0 | 0.00 | 0.00 | 0.00 | 63 | 1016.4 |
| 20260508125306 | 55 | 186 | 1.0 | 5.0 | 0.00 | 0.00 | 0.00 | 63 | 1016.6 |
| 20260508124802 | 55 | 186 | 1.0 | 5.0 | 0.00 | 0.00 | 0.00 | 62 | 1016.6 |
| 20260508124301 | 55 | 202 | 1.0 | 8.0 | 0.00 | 0.00 | 0.00 | 64 | 1016.5 |
| 20260508123803 | 55 | 205 | 1.0 | 8.0 | 0.00 | 0.00 | 0.00 | 65 | 1016.3 |
| 20260508122801 | 55 | 188 | 1.0 | 6.0 | 0.00 | 0.00 | 0.00 | 67 | 1016.2 |
| 20260508122306 | 55 | 196 | 2.0 | 9.0 | 0.00 | 0.00 | 0.00 | 68 | 1016.1 |
| 20260508121808 | 55 | 194 | 1.0 | 9.0 | 0.00 | 0.00 | 0.00 | 68 | 1016.1 |
| 20260508120802 | 54 | 195 | 1.0 | 5.0 | 0.00 | 0.00 | 0.00 | 68 | 1016.0 |
| 20260508120303 | 54 | 203 | 1.0 | 4.0 | 0.00 | 0.00 | 0.00 | 70 | 1016.0 |
| 20260508115305 | 54 | 201 | 1.0 | 9.0 | 0.00 | 0.00 | 0.00 | 73 | 1015.9 |
| 20260508114804 | 54 | 200 | 1.0 | 9.0 | 0.00 | 0.00 | 0.00 | 72 | 1015.9 |
| 20260508114301 | 53 | 196 | 1.0 | 5.0 | 0.00 | 0.00 | 0.00 | 71 | 1015.8 |
| 20260508113257 | 53 | 200 | 0.0 | 1.0 | 0.00 | 0.00 | 0.00 | 75 | 1015.7 |
| 20260508112804 | 52 | 200 | 0.0 | 1.0 | 0.00 | 0.00 | 0.00 | 75 | 1015.7 |
| 20260508111754 | 52 | 200 | 1.0 | 2.0 | 0.00 | 0.00 | 0.00 | 75 | 1015.5 |
| 20260508111254 | 51 | 200 | 0.0 | 2.0 | 0.00 | 0.00 | 0.00 | 76 | 1015.4 |
| 20260508110749 | 51 | 196 | 0.0 | 0.0 | 0.00 | 0.00 | 0.00 | 77 | 1015.3 |
| 20260508110248 | 51 | 196 | 0.0 | 0.0 | 0.00 | 0.00 | 0.00 | 77 | 1015.3 |
| 20260508104746 | 51 | 197 | 0.0 | 0.0 | 0.00 | 0.00 | 0.00 | 77 | 1015.0 |
| 20260508104247 | 50 | 197 | 0.0 | 0.0 | 0.00 | 0.00 | 0.00 | 77 | 1015.0 |
| 20260508103249 | 50 | 197 | 0.0 | 1.0 | 0.00 | 0.00 | 0.00 | 77 | 1014.8 |
| 20260508102248 | 50 | 197 | 0.0 | 1.0 | 0.00 | 0.00 | 0.00 | 77 | 1014.7 |
| 20260508101744 | 50 | 207 | 0.0 | 1.0 | 0.00 | 0.00 | 0.00 | 77 | 1014.6 |
| 20260508101245 | 51 | 207 | 0.0 | 1.0 | 0.00 | 0.00 | 0.00 | 77 | 1014.5 |
| 20260508100747 | 51 | 209 | 0.0 | 1.0 | 0.00 | 0.00 | 0.00 | 78 | 1014.3 |
| 20260508100249 | 51 | 209 | 0.0 | 1.0 | 0.00 | 0.00 | 0.00 | 78 | 1014.3 |
| 20260508095750 | 51 | 209 | 1.0 | 2.0 | 0.00 | 0.00 | 0.00 | 78 | 1014.3 |
| 20260508095245 | 51 | 209 | 1.0 | 2.0 | 0.00 | 0.00 | 0.00 | 79 | 1014.2 |
| 20260508094250 | 51 | 213 | 0.0 | 2.0 | 0.00 | 0.00 | 0.00 | 80 | 1013.9 |
| 20260508093750 | 51 | 213 | 0.0 | 3.0 | 0.00 | 0.00 | 0.00 | 80 | 1013.8 |
| 20260508093250 | 51 | 210 | 0.0 | 3.0 | 0.00 | 0.00 | 0.00 | 81 | 1013.7 |
| 20260508092747 | 51 | 209 | 1.0 | 2.0 | 0.00 | 0.00 | 0.00 | 82 | 1013.6 |
| 20260508092244 | 51 | 208 | 1.0 | 2.0 | 0.00 | 0.00 | 0.00 | 83 | 1013.6 |
| 20260508091745 | 51 | 208 | 1.0 | 2.0 | 0.00 | 0.00 | 0.00 | 84 | 1013.5 |
| 20260508091241 | 51 | 207 | 1.0 | 2.0 | 0.00 | 0.00 | 0.00 | 84 | 1013.5 |
| 20260508090743 | 51 | 207 | 1.0 | 2.0 | 0.00 | 0.00 | 0.00 | 85 | 1013.5 |
| 20260508090243 | 51 | 198 | 1.0 | 2.0 | 0.00 | 0.00 | 0.00 | 86 | 1013.4 |
| 20260508085239 | 51 | 177 | 0.0 | 1.0 | 0.00 | 0.00 | 0.00 | 87 | 1013.3 |
| 20260508084739 | 51 | 174 | 0.0 | 1.0 | 0.00 | 0.00 | 0.00 | 88 | 1013.1 |
| 20260508084241 | 51 | 175 | 0.0 | 1.0 | 0.00 | 0.00 | 0.00 | 88 | 1013.1 |
| 20260508083742 | 51 | 150 | 0.0 | 1.0 | 0.00 | 0.00 | 0.00 | 88 | 1013.1 |
| 20260508083241 | 51 | 148 | 0.0 | 2.0 | 0.00 | 0.00 | 0.00 | 89 | 1013.1 |
| 20260508082238 | 51 | 138 | 0.0 | 1.0 | 0.00 | 0.00 | 0.00 | 89 | 1012.9 |
| 20260508081236 | 51 | 135 | 0.0 | 3.0 | 0.00 | 0.00 | 0.00 | 89 | 1012.8 |
| 20260508080731 | 51 | 136 | 0.0 | 3.0 | 0.00 | 0.00 | 0.00 | 90 | 1012.8 |
| 20260508080232 | 51 | 137 | 0.0 | 3.0 | 0.00 | 0.00 | 0.00 | 90 | 1012.7 |
| 20260508075732 | 51 | 153 | 0.0 | 0.0 | 0.00 | 0.00 | 0.00 | 90 | 1012.7 |
| 20260508075225 | 51 | 153 | 0.0 | 2.0 | 0.00 | 0.00 | 0.00 | 90 | 1012.6 |
| 20260508074725 | 51 | 153 | 0.0 | 2.0 | 0.00 | 0.00 | 0.00 | 90 | 1012.6 |
| 20260508074221 | 51 | 157 | 1.0 | 1.0 | 0.00 | 0.00 | 0.00 | 91 | 1012.4 |
| 20260508073721 | 51 | 160 | 0.0 | 1.0 | 0.00 | 0.00 | 0.00 | 91 | 1012.2 |
| 20260508073218 | 50 | 160 | 0.0 | 4.0 | 0.00 | 0.00 | 0.00 | 91 | 1012.2 |
| 20260508072718 | 50 | 160 | 0.0 | 4.0 | 0.00 | 0.00 | 0.00 | 91 | 1012.0 |
| 20260508072218 | 50 | 164 | 0.0 | 1.0 | 0.00 | 0.00 | 0.00 | 91 | 1012.0 |
| 20260508071716 | 50 | 173 | 0.0 | 0.0 | 0.00 | 0.00 | 0.00 | 91 | 1012.1 |
| 20260508071213 | 50 | 173 | 0.0 | 0.0 | 0.00 | 0.00 | 0.00 | 91 | 1012.0 |
| 20260508070713 | 50 | 173 | 0.0 | 0.0 | 0.00 | 0.00 | 0.00 | 91 | 1011.9 |
| 20260508070213 | 49 | 173 | 0.0 | 0.0 | 0.00 | 0.00 | 0.00 | 91 | 1011.8 |
| 20260508065705 | 49 | 173 | 0.0 | 0.0 | 0.00 | 0.00 | 0.00 | 91 | 1011.7 |
| 20260508065206 | 49 | 173 | 0.0 | 0.0 | 0.00 | 0.00 | 0.00 | 91 | 1011.7 |
| 20260508064700 | 49 | 173 | 0.0 | 0.0 | 0.00 | 0.00 | 0.00 | 91 | 1011.8 |
| 20260508064207 | 49 | 173 | 0.0 | 0.0 | 0.00 | 0.00 | 0.00 | 91 | 1011.8 |
| 20260508063727 | 49 | 173 | 0.0 | 0.0 | 0.00 | 0.00 | 0.00 | 91 | 1011.9 |
| 20260508063207 | 49 | 173 | 0.0 | 0.0 | 0.00 | 0.00 | 0.00 | 91 | 1011.9 |
| 20260508062708 | 49 | 173 | 0.0 | 0.0 | 0.00 | 0.00 | 0.00 | 91 | 1011.8 |
| 20260508062205 | 49 | 173 | 0.0 | 0.0 | 0.00 | 0.00 | 0.00 | 91 | 1011.7 |
| 20260508061704 | 49 | 173 | 0.0 | 0.0 | 0.00 | 0.00 | 0.00 | 91 | 1011.8 |
| 20260508061153 | 49 | 173 | 0.0 | 1.0 | 0.00 | 0.00 | 0.00 | 91 | 1011.7 |
| 20260508060650 | 49 | 173 | 0.0 | 1.0 | 0.00 | 0.00 | 0.00 | 91 | 1011.7 |
| 20260508060147 | 49 | 174 | 0.0 | 1.0 | 0.00 | 0.00 | 0.00 | 91 | 1011.8 |
| 20260508055646 | 49 | 174 | 0.0 | 2.0 | 0.00 | 0.00 | 0.00 | 91 | 1011.7 |
| 20260508054648 | 49 | 178 | 0.0 | 1.0 | 0.00 | 0.00 | 0.00 | 91 | 1011.7 |
| 20260508054141 | 49 | 178 | 0.0 | 2.0 | 0.00 | 0.00 | 0.00 | 91 | 1011.7 |
| 20260508053647 | 49 | 178 | 0.0 | 2.0 | 0.00 | 0.00 | 0.00 | 91 | 1011.8 |
| 20260508052141 | 49 | 178 | 0.0 | 2.0 | 0.00 | 0.00 | 0.00 | 91 | 1011.8 |
| 20260508051639 | 49 | 181 | 0.0 | 1.0 | 0.00 | 0.00 | 0.00 | 92 | 1011.9 |
| 20260508051138 | 49 | 186 | 0.0 | 1.0 | 0.00 | 0.00 | 0.00 | 92 | 1011.9 |
| 20260508050636 | 49 | 188 | 0.0 | 0.0 | 0.00 | 0.00 | 0.00 | 92 | 1011.9 |
| 20260508050135 | 49 | 188 | 0.0 | 0.0 | 0.00 | 0.00 | 0.00 | 92 | 1011.8 |
| 20260508045637 | 49 | 188 | 0.0 | 0.0 | 0.00 | 0.00 | 0.00 | 93 | 1011.9 |
| 20260508045137 | 49 | 188 | 0.0 | 0.0 | 0.00 | 0.00 | 0.00 | 93 | 1011.9 |
| 20260508044635 | 49 | 188 | 0.0 | 0.0 | 0.00 | 0.00 | 0.00 | 94 | 1011.9 |
| 20260508044134 | 49 | 188 | 0.0 | 0.0 | 0.00 | 0.00 | 0.00 | 94 | 1011.9 |
| 20260508043129 | 49 | 188 | 0.0 | 0.0 | 0.00 | 0.00 | 0.00 | 94 | 1011.9 |
| 20260508042635 | 49 | 188 | 0.0 | 0.0 | 0.00 | 0.00 | 0.00 | 94 | 1011.8 |
| 20260508042129 | 49 | 188 | 0.0 | 0.0 | 0.00 | 0.00 | 0.00 | 94 | 1011.9 |
| 20260508041629 | 49 | 188 | 0.0 | 0.0 | 0.00 | 0.00 | 0.00 | 94 | 1011.8 |
| 20260508041138 | 49 | 188 | 0.0 | 0.0 | 0.00 | 0.00 | 0.00 | 94 | 1011.7 |
| 20260508040629 | 50 | 188 | 0.0 | 0.0 | 0.00 | 0.00 | 0.00 | 94 | 1011.7 |
| 20260508040136 | 50 | 188 | 0.0 | 0.0 | 0.00 | 0.00 | 0.00 | 94 | 1011.6 |
| 20260508035136 | 50 | 188 | 0.0 | 0.0 | 0.00 | 0.00 | 0.00 | 94 | 1011.6 |
| 20260508034630 | 50 | 188 | 0.0 | 0.0 | 0.00 | 0.00 | 0.00 | 94 | 1011.6 |
| 20260508033637 | 50 | 188 | 0.0 | 0.0 | 0.00 | 0.00 | 0.00 | 94 | 1011.4 |
| 20260508032635 | 50 | 188 | 0.0 | 0.0 | 0.00 | 0.00 | 0.00 | 94 | 1011.5 |
| 20260508032129 | 51 | 188 | 0.0 | 0.0 | 0.00 | 0.00 | 0.00 | 94 | 1011.4 |
| 20260508031630 | 51 | 188 | 0.0 | 0.0 | 0.00 | 0.00 | 0.00 | 94 | 1011.6 |
| 20260508031131 | 51 | 188 | 0.0 | 0.0 | 0.00 | 0.00 | 0.00 | 94 | 1011.6 |
| 20260508030632 | 51 | 188 | 0.0 | 0.0 | 0.00 | 0.00 | 0.00 | 94 | 1011.6 |
| 20260508025629 | 51 | 188 | 0.0 | 0.0 | 0.00 | 0.00 | 0.00 | 94 | 1011.6 |
| 20260508025132 | 51 | 188 | 0.0 | 0.0 | 0.00 | 0.00 | 0.00 | 93 | 1011.6 |
| 20260508024129 | 51 | 188 | 0.0 | 0.0 | 0.00 | 0.00 | 0.00 | 93 | 1011.7 |
| 20260508023129 | 51 | 188 | 0.0 | 0.0 | 0.00 | 0.00 | 0.00 | 93 | 1011.6 |
| 20260508022622 | 52 | 188 | 0.0 | 0.0 | 0.00 | 0.00 | 0.00 | 93 | 1011.6 |
| 20260508022129 | 52 | 188 | 0.0 | 0.0 | 0.00 | 0.00 | 0.00 | 93 | 1011.6 |
| 20260508021627 | 52 | 188 | 0.0 | 0.0 | 0.00 | 0.00 | 0.00 | 93 | 1011.5 |
| 20260508015627 | 52 | 188 | 0.0 | 0.0 | 0.00 | 0.00 | 0.00 | 92 | 1011.4 |
| 20260508015124 | 52 | 188 | 0.0 | 0.0 | 0.00 | 0.00 | 0.00 | 92 | 1011.4 |
| 20260508014628 | 52 | 188 | 0.0 | 0.0 | 0.00 | 0.00 | 0.00 | 92 | 1011.4 |
| 20260508014121 | 52 | 188 | 0.0 | 0.0 | 0.00 | 0.00 | 0.00 | 92 | 1011.4 |
| 20260508013622 | 52 | 188 | 0.0 | 0.0 | 0.00 | 0.00 | 0.00 | 92 | 1011.4 |
| 20260508013119 | 52 | 188 | 0.0 | 0.0 | 0.00 | 0.00 | 0.00 | 92 | 1011.4 |
| 20260508012120 | 53 | 188 | 0.0 | 0.0 | 0.00 | 0.00 | 0.00 | 92 | 1011.2 |
| 20260508011623 | 53 | 188 | 0.0 | 2.0 | 0.00 | 0.00 | 0.00 | 92 | 1011.3 |
| 20260508011119 | 53 | 188 | 0.0 | 2.0 | 0.00 | 0.00 | 0.00 | 91 | 1011.3 |
| 20260508005623 | 53 | 188 | 0.0 | 1.0 | 0.00 | 0.00 | 0.00 | 91 | 1010.9 |
| 20260508004616 | 53 | 188 | 0.0 | 0.0 | 0.00 | 0.00 | 0.00 | 91 | 1010.7 |
| 20260508004137 | 53 | 188 | 0.0 | 1.0 | 0.00 | 0.00 | 0.00 | 91 | 1010.8 |
| 20260508003615 | 53 | 188 | 0.0 | 1.0 | 0.00 | 0.00 | 0.00 | 91 | 1010.7 |
| 20260508002616 | 53 | 188 | 0.0 | 0.0 | 0.00 | 0.00 | 0.00 | 91 | 1010.5 |
| 20260508002109 | 53 | 188 | 0.0 | 0.0 | 0.00 | 0.00 | 0.00 | 90 | 1010.4 |
| 20260508001612 | 53 | 188 | 0.0 | 0.0 | 0.00 | 0.00 | 0.00 | 90 | 1010.3 |
| 20260508001110 | 53 | 188 | 0.0 | 0.0 | 0.00 | 0.00 | 0.00 | 90 | 1010.2 |
| 20260508000609 | 53 | 188 | 0.0 | 0.0 | 0.00 | 0.00 | 0.00 | 90 | 1010.3 |
| 20260508000105 | 53 | 188 | 0.0 | 0.0 | 0.00 | 0.00 | 0.00 | 90 | 1010.2 |
| 20260507235603 | 53 | 188 | 0.0 | 0.0 | 0.00 | 0.00 | 0.00 | 90 | 1010.1 |
| 20260507235105 | 53 | 188 | 0.0 | 0.0 | 0.00 | 0.00 | 0.00 | 89 | 1010.3 |
| 20260507234605 | 53 | 188 | 0.0 | 0.0 | 0.00 | 0.00 | 0.00 | 89 | 1010.1 |
| 20260507233604 | 53 | 188 | 0.0 | 0.0 | 0.00 | 0.00 | 0.00 | 88 | 1010.2 |
| 20260507232612 | 53 | 188 | 0.0 | 0.0 | 0.00 | 0.00 | 0.00 | 86 | 1010.0 |
| 20260507231047 | 53 | 188 | 0.0 | 0.0 | 0.00 | 0.00 | 0.00 | 86 | 1010.2 |
| 20260507230548 | 53 | 188 | 0.0 | 0.0 | 0.00 | 0.00 | 0.00 | 86 | 1010.3 |
| 20260507230043 | 53 | 188 | 0.0 | 0.0 | 0.00 | 0.00 | 0.00 | 87 | 1010.4 |
| 20260507225542 | 53 | 188 | 0.0 | 0.0 | 0.00 | 0.00 | 0.00 | 86 | 1010.1 |
| 20260507225041 | 53 | 188 | 0.0 | 1.0 | 0.00 | 0.00 | 0.00 | 85 | 1010.1 |
| 20260507224538 | 53 | 188 | 0.0 | 1.0 | 0.00 | 0.00 | 0.00 | 85 | 1010.1 |
| 20260507224039 | 53 | 188 | 0.0 | 1.0 | 0.00 | 0.00 | 0.00 | 86 | 1010.3 |
| 20260507223539 | 53 | 188 | 0.0 | 1.0 | 0.00 | 0.00 | 0.00 | 86 | 1010.4 |
| 20260507223041 | 53 | 188 | 0.0 | 0.0 | 0.00 | 0.00 | 0.00 | 88 | 1010.5 |
| 20260507222541 | 53 | 188 | 0.0 | 0.0 | 0.00 | 0.00 | 0.00 | 88 | 1010.7 |
| 20260507221541 | 53 | 188 | 0.0 | 0.0 | 0.00 | 0.00 | 0.00 | 89 | 1010.5 |
| 20260507221036 | 53 | 188 | 0.0 | 0.0 | 0.00 | 0.00 | 0.00 | 89 | 1010.1 |
| 20260507220537 | 54 | 188 | 0.0 | 1.0 | 0.00 | 0.00 | 0.00 | 90 | 1010.2 |
| 20260507215535 | 53 | 188 | 0.0 | 0.0 | 0.00 | 0.00 | 0.00 | 90 | 1010.1 |
| 20260507214536 | 54 | 188 | 0.0 | 1.0 | 0.00 | 0.00 | 0.00 | 90 | 1010.4 |
| 20260507214031 | 54 | 189 | 0.0 | 0.0 | 0.00 | 0.00 | 0.00 | 90 | 1010.8 |
| 20260507213530 | 54 | 188 | 0.0 | 0.0 | 0.00 | 0.00 | 0.00 | 90 | 1010.5 |
| 20260507213035 | 54 | 188 | 0.0 | 0.0 | 0.00 | 0.00 | 0.00 | 90 | 1010.6 |
| 20260507212530 | 54 | 188 | 0.0 | 0.0 | 0.00 | 0.00 | 0.00 | 89 | 1010.5 |
| 20260507212034 | 54 | 188 | 0.0 | 0.0 | 0.00 | 0.00 | 0.00 | 88 | 1010.0 |
| 20260507211536 | 54 | 188 | 0.0 | 0.0 | 0.00 | 0.00 | 0.00 | 86 | 1010.1 |
| 20260507210533 | 54 | 188 | 0.0 | 0.0 | 0.00 | 0.00 | 0.00 | 85 | 1010.7 |
| 20260507205532 | 54 | 188 | 0.0 | 1.0 | 0.00 | 0.00 | 0.00 | 82 | 1010.4 |
| 20260507205033 | 55 | 188 | 0.0 | 1.0 | 0.00 | 0.00 | 0.00 | 81 | 1010.2 |
| 20260507204035 | 55 | 188 | 0.0 | 2.0 | 0.00 | 0.00 | 0.00 | 82 | 1010.5 |
| 20260507203531 | 55 | 195 | 0.0 | 1.0 | 0.00 | 0.00 | 0.00 | 80 | 1010.4 |
| 20260507203032 | 55 | 195 | 0.0 | 0.0 | 0.00 | 0.00 | 0.00 | 81 | 1010.3 |
| 20260507202538 | 55 | 195 | 0.0 | 0.0 | 0.00 | 0.00 | 0.00 | 79 | 1009.9 |
| 20260507202032 | 55 | 195 | 0.0 | 0.0 | 0.00 | 0.00 | 0.00 | 79 | 1009.8 |
| 20260507201530 | 55 | 195 | 0.0 | 0.0 | 0.00 | 0.00 | 0.00 | 78 | 1010.1 |
| 20260507201036 | 55 | 195 | 0.0 | 1.0 | 0.00 | 0.00 | 0.00 | 76 | 1010.1 |
| 20260507200532 | 55 | 195 | 0.0 | 1.0 | 0.00 | 0.00 | 0.00 | 74 | 1010.1 |
| 20260507200029 | 55 | 195 | 1.0 | 1.0 | 0.00 | 0.00 | 0.00 | 74 | 1009.9 |
| 20260507195532 | 56 | 195 | 1.0 | 1.0 | 0.00 | 0.00 | 0.00 | 74 | 1009.7 |
| 20260507195029 | 56 | 195 | 0.0 | 1.0 | 0.00 | 0.00 | 0.00 | 74 | 1009.8 |
| 20260507194531 | 56 | 195 | 0.0 | 1.0 | 0.00 | 0.00 | 0.00 | 74 | 1009.8 |
| 20260507194031 | 56 | 194 | 0.0 | 2.0 | 0.00 | 0.00 | 0.00 | 75 | 1009.9 |
| 20260507193530 | 57 | 194 | 0.0 | 2.0 | 0.00 | 0.00 | 0.00 | 75 | 1010.1 |
| 20260507193033 | 57 | 193 | 0.0 | 1.0 | 0.00 | 0.00 | 0.00 | 76 | 1010.2 |
| 20260507192531 | 57 | 194 | 1.0 | 1.0 | 0.00 | 0.00 | 0.00 | 73 | 1010.5 |
| 20260507192033 | 57 | 194 | 0.0 | 1.0 | 0.00 | 0.00 | 0.00 | 70 | 1010.1 |
| 20260507191528 | 57 | 194 | 0.0 | 1.0 | 0.00 | 0.00 | 0.00 | 69 | 1010.0 |
| 20260507191031 | 57 | 194 | 0.0 | 1.0 | 0.00 | 0.00 | 0.00 | 71 | 1010.1 |
| 20260507190529 | 57 | 198 | 0.0 | 1.0 | 0.00 | 0.00 | 0.00 | 76 | 1010.2 |
| 20260507185530 | 57 | 198 | 0.0 | 1.0 | 0.00 | 0.00 | 0.00 | 74 | 1010.7 |
| 20260507185039 | 57 | 198 | 0.0 | 1.0 | 0.00 | 0.00 | 0.00 | 73 | 1011.0 |
| 20260507184531 | 56 | 198 | 1.0 | 1.0 | 0.00 | 0.00 | 0.00 | 74 | 1011.2 |
| 20260507184032 | 56 | 198 | 0.0 | 1.0 | 0.00 | 0.00 | 0.00 | 76 | 1011.1 |
| 20260507183019 | 56 | 198 | 1.0 | 2.0 | 0.00 | 0.00 | 0.00 | 77 | 1011.2 |
| 20260507182513 | 57 | 197 | 0.0 | 1.0 | 0.00 | 0.00 | 0.00 | 77 | 1011.2 |
| 20260507182013 | 57 | 201 | 0.0 | 2.0 | 0.00 | 0.00 | 0.00 | 79 | 1011.2 |
| 20260507181511 | 57 | 201 | 0.0 | 2.0 | 0.00 | 0.00 | 0.00 | 78 | 1010.9 |
| 20260507181008 | 57 | 198 | 0.0 | 2.0 | 0.00 | 0.00 | 0.00 | 78 | 1010.8 |
| 20260507180510 | 57 | 198 | 1.0 | 2.0 | 0.00 | 0.00 | 0.00 | 78 | 1010.9 |
| 20260507180010 | 57 | 197 | 1.0 | 1.0 | 0.00 | 0.00 | 0.00 | 77 | 1011.0 |
| 20260507175509 | 57 | 196 | 1.0 | 2.0 | 0.00 | 0.00 | 0.00 | 78 | 1011.0 |
| 20260507175014 | 57 | 195 | 1.0 | 2.0 | 0.00 | 0.00 | 0.00 | 76 | 1011.2 |
| 20260507174505 | 57 | 195 | 1.0 | 2.0 | 0.00 | 0.00 | 0.00 | 77 | 1011.2 |
| 20260507174013 | 57 | 200 | 1.0 | 2.0 | 0.00 | 0.00 | 0.00 | 77 | 1011.0 |
| 20260507172010 | 57 | 184 | 1.0 | 4.0 | 0.00 | 0.00 | 0.00 | 77 | 1011.5 |
| 20260507171009 | 57 | 198 | 1.0 | 3.0 | 0.00 | 0.00 | 0.00 | 77 | 1011.5 |
| 20260507170509 | 57 | 196 | 1.0 | 1.0 | 0.00 | 0.00 | 0.00 | 79 | 1011.8 |
| 20260507170006 | 57 | 198 | 1.0 | 2.0 | 0.00 | 0.00 | 0.00 | 79 | 1011.9 |
| 20260507165003 | 57 | 194 | 1.0 | 2.0 | 0.00 | 0.00 | 0.00 | 78 | 1011.9 |
| 20260507164510 | 57 | 196 | 1.0 | 2.0 | 0.00 | 0.00 | 0.00 | 77 | 1012.1 |
| 20260507164003 | 57 | 193 | 1.0 | 5.0 | 0.00 | 0.00 | 0.00 | 78 | 1011.9 |
| 20260507163007 | 57 | 197 | 1.0 | 5.0 | 0.00 | 0.00 | 0.00 | 76 | 1012.0 |
| 20260507162503 | 57 | 210 | 1.0 | 5.0 | 0.00 | 0.00 | 0.00 | 76 | 1012.1 |
| 20260507162006 | 57 | 200 | 0.0 | 4.0 | 0.00 | 0.00 | 0.00 | 78 | 1012.1 |
| 20260507161503 | 57 | 197 | 1.0 | 3.0 | 0.00 | 0.00 | 0.00 | 79 | 1012.4 |
| 20260507160501 | 57 | 198 | 1.0 | 4.0 | 0.00 | 0.00 | 0.00 | 77 | 1012.4 |
| 20260507155504 | 57 | 202 | 1.0 | 4.0 | 0.00 | 0.00 | 0.00 | 80 | 1012.4 |
| 20260507155004 | 57 | 201 | 1.0 | 3.0 | 0.00 | 0.00 | 0.00 | 80 | 1012.6 |
| 20260507154510 | 56 | 192 | 1.0 | 5.0 | 0.00 | 0.00 | 0.00 | 80 | 1012.6 |
| 20260507153505 | 56 | 174 | 1.0 | 3.0 | 0.00 | 0.00 | 0.00 | 79 | 1012.8 |
| 20260507152502 | 56 | 207 | 1.0 | 5.0 | 0.00 | 0.00 | 0.00 | 79 | 1012.8 |
| 20260507152003 | 56 | 197 | 1.0 | 5.0 | 0.00 | 0.00 | 0.00 | 80 | 1012.8 |
| 20260507151004 | 56 | 213 | 1.0 | 5.0 | 0.00 | 0.00 | 0.00 | 80 | 1012.6 |
| 20260507150502 | 56 | 195 | 1.0 | 5.0 | 0.00 | 0.00 | 0.00 | 81 | 1012.6 |
| 20260507150001 | 56 | 193 | 1.0 | 5.0 | 0.00 | 0.00 | 0.00 | 81 | 1012.6 |